Location: Unspecified
(32.5099°N, 80.0190°W)
Time: 20:15:40
(UTC-04:00)

CZ-3 Stage 3 - Visible Passes

Search period start: 25 October 2014 00:00
Search period end: 03 November 2014 23:00
Orbit: 416 x 34822 km, 30.9° (Epoch: 24 October)

Date Brightness Start Highest point End Pass type
(mag) Time Alt. Az. Time Alt. Az. Time Alt. Az.
25 Oct 7.6 00:00:00 38° SSE 04:57:44 75° SSE 05:21:44 10° E visible
25 Oct 8.4 20:38:06 10° ESE 00:32:37 39° ESE 01:37:26 10° E visible
27 Oct 5.1 00:17:46 10° SSW 08:47:21 80° SSW 08:53:31 10° ESE visible
27 Oct 7.5 20:23:45 10° SSE 04:54:52 77° SSE 05:18:08 10° E visible
28 Oct 8.3 20:22:20 10° ESE 00:28:47 41° ESE 01:34:24 10° ENE visible
30 Oct 5.0 00:14:28 10° SSW 08:43:42 78° SSW 08:49:44 10° ESE visible
30 Oct 7.5 20:17:30 10° S 04:51:51 78° SSE 05:14:24 10° E visible
31 Oct 8.3 20:06:40 10° ESE 00:24:49 43° ESE 01:31:11 10° ENE visible
02 Nov 5.0 06:07:38 10° W 07:39:55 76° SSW 07:45:49 10° ESE visible
02 Nov 7.4 19:11:30 10° S 03:48:40 80° SSE 04:10:33 10° E visible
03 Nov 9.6 18:51:06 10° ESE 23:00:00 44° ESE 23:00:00 44° ESE visible
